owner,sensor,date,latitude,longitude,vertical_datum,mass_concentration_of_oxygen_in_sea_water,qcFlag 
SCCF RECON,ioos:station:SCCF:13:1,2016-05-01T00:00:00Z,26.5255,-82.0032,2.8,6.59,1111122 
SCCF RECON,ioos:station:SCCF:13:1,2016-05-01T01:00:00Z,26.5255,-82.0032,2.84,6.28,1111122 
SCCF RECON,ioos:station:SCCF:13:1,2016-05-01T02:00:00Z,26.5255,-82.0032,2.81,6.23,1111122 
SCCF RECON,ioos:station:SCCF:13:1,2016-05-01T03:00:00Z,26.5255,-82.0032,2.72,6.01,1111122 
SCCF RECON,ioos:station:SCCF:13:1,2016-05-01T04:00:00Z,26.5255,-82.0032,2.61,5.86,1111122 
SCCF RECON,ioos:station:SCCF:13:1,2016-05-01T05:00:00Z,26.5255,-82.0032,2.53,6.26,1111122 
SCCF RECON,ioos:station:SCCF:13:1,2016-05-01T06:00:00Z,26.5255,-82.0032,2.45,6.31,1111122 
SCCF RECON,ioos:station:SCCF:13:1,2016-05-01T07:00:00Z,26.5255,-82.0032,2.36,6.22,1111122 
SCCF RECON,ioos:station:SCCF:13:1,2016-05-01T08:00:00Z,26.5255,-82.0032,2.301,6.05,1111122 
SCCF RECON,ioos:station:SCCF:13:1,2016-05-01T09:00:00Z,26.5255,-82.0032,2.32,6.0,1111122 
SCCF RECON,ioos:station:SCCF:13:1,2016-05-01T10:00:00Z,26.5255,-82.0032,2.44,6.0,1111122 
SCCF RECON,ioos:station:SCCF:13:1,2016-05-01T11:00:00Z,26.5255,-82.0032,2.53,5.83,1111122 
SCCF RECON,ioos:station:SCCF:13:1,2016-05-01T12:00:00Z,26.5255,-82.0032,2.591,5.71,1111122 
SCCF RECON,ioos:station:SCCF:13:1,2016-05-01T13:00:00Z,26.5255,-82.0032,2.64,5.69,1111122 
SCCF RECON,ioos:station:SCCF:13:1,2016-05-01T14:00:00Z,26.5255,-82.0032,2.699,5.65,1111122 
SCCF RECON,ioos:station:SCCF:13:1,2016-05-01T15:00:00Z,26.5255,-82.0032,2.748,5.85,1111122 
SCCF RECON,ioos:station:SCCF:13:1,2016-05-01T16:00:00Z,26.5255,-82.0032,2.731,6.01,1111122 
SCCF RECON,ioos:station:SCCF:13:1,2016-05-01T17:00:00Z,26.5255,-82.0032,2.664,6.23,1111122 
SCCF RECON,ioos:station:SCCF:13:1,2016-05-01T18:00:00Z,26.5255,-82.0032,2.602,5.92,1111122 
SCCF RECON,ioos:station:SCCF:13:1,2016-05-01T19:00:00Z,26.5255,-82.0032,2.53,6.17,1111122 
SCCF RECON,ioos:station:SCCF:13:1,2016-05-01T20:00:00Z,26.5255,-82.0032,2.53,6.44,1111122 
SCCF RECON,ioos:station:SCCF:13:1,2016-05-01T21:00:00Z,26.5255,-82.0032,2.58,6.5,1111122 
SCCF RECON,ioos:station:SCCF:13:1,2016-05-01T22:00:00Z,26.5255,-82.0032,2.66,6.48,1111122 
SCCF RECON,ioos:station:SCCF:13:1,2016-05-01T23:00:00Z,26.5255,-82.0032,2.73,6.68,1111122 
SCCF RECON,ioos:station:SCCF:13:1,2016-05-02T00:00:00Z,26.5255,-82.0032,2.77,6.7,1111122 
SCCF RECON,ioos:station:SCCF:13:1,2016-05-02T01:00:00Z,26.5255,-82.0032,2.83,6.52,1111122 
SCCF RECON,ioos:station:SCCF:13:1,2016-05-02T02:00:00Z,26.5255,-82.0032,2.869,6.65,1111122 
SCCF RECON,ioos:station:SCCF:13:1,2016-05-02T03:00:00Z,26.5255,-82.0032,2.85,6.78,1111122 
SCCF RECON,ioos:station:SCCF:13:1,2016-05-02T04:00:00Z,26.5255,-82.0032,2.78,6.78,1111122 
SCCF RECON,ioos:station:SCCF:13:1,2016-05-02T05:00:00Z,26.5255,-82.0032,2.68,6.33,1111122 
SCCF RECON,ioos:station:SCCF:13:1,2016-05-02T06:00:00Z,26.5255,-82.0032,2.57,6.18,1111122 
SCCF RECON,ioos:station:SCCF:13:1,2016-05-02T07:00:00Z,26.5255,-82.0032,2.47,6.19,1111122 
SCCF RECON,ioos:station:SCCF:13:1,2016-05-02T08:00:00Z,26.5255,-82.0032,2.4,6.09,1111122 
SCCF RECON,ioos:station:SCCF:13:1,2016-05-02T09:00:00Z,26.5255,-82.0032,2.36,6.0,1111122 
SCCF RECON,ioos:station:SCCF:13:1,2016-05-02T10:00:00Z,26.5255,-82.0032,2.41,5.95,1111122 
SCCF RECON,ioos:station:SCCF:13:1,2016-05-02T11:00:00Z,26.5255,-82.0032,2.51,5.94,1111122 
SCCF RECON,ioos:station:SCCF:13:1,2016-05-02T12:00:00Z,26.5255,-82.0032,2.601,5.61,1111122 
SCCF RECON,ioos:station:SCCF:13:1,2016-05-02T13:00:00Z,26.5255,-82.0032,2.68,5.6,1111122 
SCCF RECON,ioos:station:SCCF:13:1,2016-05-02T14:00:00Z,26.5255,-82.0032,2.75,5.95,1111122 
SCCF RECON,ioos:station:SCCF:13:1,2016-05-02T15:00:00Z,26.5255,-82.0032,2.8,6.0,1111122 
SCCF RECON,ioos:station:SCCF:13:1,2016-05-02T16:00:00Z,26.5255,-82.0032,2.804,6.12,1111122 
SCCF RECON,ioos:station:SCCF:13:1,2016-05-02T17:00:00Z,26.5255,-82.0032,2.77,6.31,1111122 
SCCF RECON,ioos:station:SCCF:13:1,2016-05-02T18:00:00Z,26.5255,-82.0032,2.681,6.28,1111122 
SCCF RECON,ioos:station:SCCF:13:1,2016-05-02T19:00:00Z,26.5255,-82.0032,2.595,6.5,1111122 
SCCF RECON,ioos:station:SCCF:13:1,2016-05-02T20:00:00Z,26.5255,-82.0032,2.5,6.54,1111122 
SCCF RECON,ioos:station:SCCF:13:1,2016-05-02T21:00:00Z,26.5255,-82.0032,2.45,6.69,1111122 
SCCF RECON,ioos:station:SCCF:13:1,2016-05-02T22:00:00Z,26.5255,-82.0032,2.47,6.7,1111122 
SCCF RECON,ioos:station:SCCF:13:1,2016-05-02T23:00:00Z,26.5255,-82.0032,2.569,6.53,1111122 
SCCF RECON,ioos:station:SCCF:13:1,2016-05-03T00:00:00Z,26.5255,-82.0032,2.67,6.18,1111122 
SCCF RECON,ioos:station:SCCF:13:1,2016-05-03T01:00:00Z,26.5255,-82.0032,2.73,6.5,1111122 
SCCF RECON,ioos:station:SCCF:13:1,2016-05-03T02:00:00Z,26.5255,-82.0032,2.782,6.45,1111122 
SCCF RECON,ioos:station:SCCF:13:1,2016-05-03T03:00:00Z,26.5255,-82.0032,2.829,6.5,1111122 
SCCF RECON,ioos:station:SCCF:13:1,2016-05-03T04:00:00Z,26.5255,-82.0032,2.83,6.58,1111122 
SCCF RECON,ioos:station:SCCF:13:1,2016-05-03T05:00:00Z,26.5255,-82.0032,2.77,6.48,1111122 
SCCF RECON,ioos:station:SCCF:13:1,2016-05-03T06:00:00Z,26.5255,-82.0032,2.68,6.43,1111122 
SCCF RECON,ioos:station:SCCF:13:1,2016-05-03T07:00:00Z,26.5255,-82.0032,2.56,5.95,1111122 
SCCF RECON,ioos:station:SCCF:13:1,2016-05-03T08:00:00Z,26.5255,-82.0032,2.474,5.91,1111122 
SCCF RECON,ioos:station:SCCF:13:1,2016-05-03T09:00:00Z,26.5255,-82.0032,2.4,5.93,1111122 
SCCF RECON,ioos:station:SCCF:13:1,2016-05-03T10:00:00Z,26.5255,-82.0032,2.38,5.91,1111122 
SCCF RECON,ioos:station:SCCF:13:1,2016-05-03T11:00:00Z,26.5255,-82.0032,2.47,5.89,1111122 
SCCF RECON,ioos:station:SCCF:13:1,2016-05-03T12:00:00Z,26.5255,-82.0032,2.58,5.76,1111122 
SCCF RECON,ioos:station:SCCF:13:1,2016-05-03T13:00:00Z,26.5255,-82.0032,2.65,5.42,1111122 
SCCF RECON,ioos:station:SCCF:13:1,2016-05-04T22:00:00Z,26.5255,-82.0032,2.312,5.4,1111122 
SCCF RECON,ioos:station:SCCF:13:1,2016-05-04T23:00:00Z,26.5255,-82.0032,2.329,6.02,1111122 
SCCF RECON,ioos:station:SCCF:13:1,2016-05-05T00:00:00Z,26.5255,-82.0032,2.43,5.94,1111122 
SCCF RECON,ioos:station:SCCF:13:1,2016-05-05T01:00:00Z,26.5255,-82.0032,2.601,5.74,1111122 
SCCF RECON,ioos:station:SCCF:13:1,2016-05-05T02:00:00Z,26.5255,-82.0032,2.687,5.73,1111122 
SCCF RECON,ioos:station:SCCF:13:1,2016-05-05T03:00:00Z,26.5255,-82.0032,2.7,5.73,1111122 
SCCF RECON,ioos:station:SCCF:13:1,2016-05-05T04:00:00Z,26.5255,-82.0032,2.79,5.82,1111122 
SCCF RECON,ioos:station:SCCF:13:1,2016-05-05T05:00:00Z,26.5255,-82.0032,2.803,5.75,1111122 
SCCF RECON,ioos:station:SCCF:13:1,2016-05-05T06:00:00Z,26.5255,-82.0032,2.75,5.75,1111122 
SCCF RECON,ioos:station:SCCF:13:1,2016-05-05T07:00:00Z,26.5255,-82.0032,2.66,5.64,1111122 
SCCF RECON,ioos:station:SCCF:13:1,2016-05-05T08:00:00Z,26.5255,-82.0032,2.594,5.45,1111122 
SCCF RECON,ioos:station:SCCF:13:1,2016-05-05T09:00:00Z,26.5255,-82.0032,2.51,5.5,1111122 
SCCF RECON,ioos:station:SCCF:13:1,2016-05-05T10:00:00Z,26.5255,-82.0032,2.41,5.67,1111122 
SCCF RECON,ioos:station:SCCF:13:1,2016-05-05T11:00:00Z,26.5255,-82.0032,2.34,5.75,1111122 
SCCF RECON,ioos:station:SCCF:13:1,2016-05-05T12:00:00Z,26.5255,-82.0032,2.301,5.9,1111122 
SCCF RECON,ioos:station:SCCF:13:1,2016-05-05T13:00:00Z,26.5255,-82.0032,2.38,5.93,1111122 
SCCF RECON,ioos:station:SCCF:13:1,2016-05-05T14:00:00Z,26.5255,-82.0032,2.56,5.93,1111122 
SCCF RECON,ioos:station:SCCF:13:1,2016-05-05T15:00:00Z,26.5255,-82.0032,2.654,5.96,1111122 
SCCF RECON,ioos:station:SCCF:13:1,2016-05-05T16:00:00Z,26.5255,-82.0032,2.699,5.91,1111122 
SCCF RECON,ioos:station:SCCF:13:1,2016-05-05T17:00:00Z,26.5255,-82.0032,2.718,5.92,1111122 
SCCF RECON,ioos:station:SCCF:13:1,2016-05-05T18:00:00Z,26.5255,-82.0032,2.64,5.97,1111122 
SCCF RECON,ioos:station:SCCF:13:1,2016-05-05T19:00:00Z,26.5255,-82.0032,2.501,6.13,1111122 
SCCF RECON,ioos:station:SCCF:13:1,2016-05-05T20:00:00Z,26.5255,-82.0032,2.39,6.35,1111122 
SCCF RECON,ioos:station:SCCF:13:1,2016-05-05T21:00:00Z,26.5255,-82.0032,2.31,6.59,1111122 
SCCF RECON,ioos:station:SCCF:13:1,2016-05-05T22:00:00Z,26.5255,-82.0032,2.221,6.74,1111122 
SCCF RECON,ioos:station:SCCF:13:1,2016-05-05T23:00:00Z,26.5255,-82.0032,2.14,6.71,1111122 
SCCF RECON,ioos:station:SCCF:13:1,2016-05-06T00:00:00Z,26.5255,-82.0032,2.112,6.7,1111122 
SCCF RECON,ioos:station:SCCF:13:1,2016-05-06T01:00:00Z,26.5255,-82.0032,2.16,6.68,1111122 
SCCF RECON,ioos:station:SCCF:13:1,2016-05-06T02:00:00Z,26.5255,-82.0032,2.3,6.58,1111122 
SCCF RECON,ioos:station:SCCF:13:1,2016-05-06T03:00:00Z,26.5255,-82.0032,2.43,6.49,1111122 
SCCF RECON,ioos:station:SCCF:13:1,2016-05-06T04:00:00Z,26.5255,-82.0032,2.547,6.4,1111122 
SCCF RECON,ioos:station:SCCF:13:1,2016-05-06T05:00:00Z,26.5255,-82.0032,2.65,6.44,1111122 
SCCF RECON,ioos:station:SCCF:13:1,2016-05-06T06:00:00Z,26.5255,-82.0032,2.705,6.2,1111122 
SCCF RECON,ioos:station:SCCF:13:1,2016-05-06T07:00:00Z,26.5255,-82.0032,2.68,6.19,1111122 
SCCF RECON,ioos:station:SCCF:13:1,2016-05-06T08:00:00Z,26.5255,-82.0032,2.59,6.1,1111122 
SCCF RECON,ioos:station:SCCF:13:1,2016-05-06T09:00:00Z,26.5255,-82.0032,2.5,6.07,1111122 
SCCF RECON,ioos:station:SCCF:13:1,2016-05-06T10:00:00Z,26.5255,-82.0032,2.43,5.75,1111122 
SCCF RECON,ioos:station:SCCF:13:1,2016-05-06T11:00:00Z,26.5255,-82.0032,2.38,6.0,1111122 
SCCF RECON,ioos:station:SCCF:13:1,2016-05-06T12:00:00Z,26.5255,-82.0032,2.35,6.18,1111122 
SCCF RECON,ioos:station:SCCF:13:1,2016-05-06T13:00:00Z,26.5255,-82.0032,2.389,6.27,1111122 
SCCF RECON,ioos:station:SCCF:13:1,2016-05-06T14:00:00Z,26.5255,-82.0032,2.542,6.24,1111122 
SCCF RECON,ioos:station:SCCF:13:1,2016-05-06T15:00:00Z,26.5255,-82.0032,2.662,6.19,1111122 
SCCF RECON,ioos:station:SCCF:13:1,2016-05-06T16:00:00Z,26.5255,-82.0032,2.733,6.12,1111122 
SCCF RECON,ioos:station:SCCF:13:1,2016-05-06T17:00:00Z,26.5255,-82.0032,2.79,6.22,1111122 
SCCF RECON,ioos:station:SCCF:13:1,2016-05-06T18:00:00Z,26.5255,-82.0032,2.779,6.49,1111122 
SCCF RECON,ioos:station:SCCF:13:1,2016-05-06T19:00:00Z,26.5255,-82.0032,2.686,6.57,1111122 
SCCF RECON,ioos:station:SCCF:13:1,2016-05-06T20:00:00Z,26.5255,-82.0032,2.561,6.82,1111122 
SCCF RECON,ioos:station:SCCF:13:1,2016-05-06T21:00:00Z,26.5255,-82.0032,2.449,6.8,1111122 
SCCF RECON,ioos:station:SCCF:13:1,2016-05-06T22:00:00Z,26.5255,-82.0032,2.354,6.95,1111122 
SCCF RECON,ioos:station:SCCF:13:1,2016-05-06T23:00:00Z,26.5255,-82.0032,2.26,7.06,1111122 
SCCF RECON,ioos:station:SCCF:13:1,2016-05-07T00:00:00Z,26.5255,-82.0032,2.17,7.11,1111122 
SCCF RECON,ioos:station:SCCF:13:1,2016-05-07T01:00:00Z,26.5255,-82.0032,2.116,7.25,1111122 
SCCF RECON,ioos:station:SCCF:13:1,2016-05-07T02:00:00Z,26.5255,-82.0032,2.15,7.15,1111122 
SCCF RECON,ioos:station:SCCF:13:1,2016-05-07T03:00:00Z,26.5255,-82.0032,2.307,7.04,1111122 
SCCF RECON,ioos:station:SCCF:13:1,2016-05-07T04:00:00Z,26.5255,-82.0032,2.44,6.91,1111122 
SCCF RECON,ioos:station:SCCF:13:1,2016-05-07T05:00:00Z,26.5255,-82.0032,2.54,6.73,1111122 
SCCF RECON,ioos:station:SCCF:13:1,2016-05-07T06:00:00Z,26.5255,-82.0032,2.621,6.66,1111122 
SCCF RECON,ioos:station:SCCF:13:1,2016-05-07T07:00:00Z,26.5255,-82.0032,2.659,6.54,1111122 
SCCF RECON,ioos:station:SCCF:13:1,2016-05-07T08:00:00Z,26.5255,-82.0032,2.62,6.6,1111122 
SCCF RECON,ioos:station:SCCF:13:1,2016-05-07T09:00:00Z,26.5255,-82.0032,2.5,6.53,1111122 
SCCF RECON,ioos:station:SCCF:13:1,2016-05-07T10:00:00Z,26.5255,-82.0032,2.41,6.32,1111122 
SCCF RECON,ioos:station:SCCF:13:1,2016-05-07T11:00:00Z,26.5255,-82.0032,2.376,6.18,1111122 
SCCF RECON,ioos:station:SCCF:13:1,2016-05-07T12:00:00Z,26.5255,-82.0032,2.356,6.39,1111122 
SCCF RECON,ioos:station:SCCF:13:1,2016-05-07T13:00:00Z,26.5255,-82.0032,2.37,6.64,1111122 
SCCF RECON,ioos:station:SCCF:13:1,2016-05-07T14:00:00Z,26.5255,-82.0032,2.474,6.62,1111122 
SCCF RECON,ioos:station:SCCF:13:1,2016-05-07T15:00:00Z,26.5255,-82.0032,2.61,6.2,1111122 
SCCF RECON,ioos:station:SCCF:13:1,2016-05-07T16:00:00Z,26.5255,-82.0032,2.714,6.57,1111122 
SCCF RECON,ioos:station:SCCF:13:1,2016-05-07T17:00:00Z,26.5255,-82.0032,2.78,6.57,1111122 
SCCF RECON,ioos:station:SCCF:13:1,2016-05-07T18:00:00Z,26.5255,-82.0032,2.801,6.69,1111122 
SCCF RECON,ioos:station:SCCF:13:1,2016-05-07T19:00:00Z,26.5255,-82.0032,2.795,6.94,1111122 
SCCF RECON,ioos:station:SCCF:13:1,2016-05-07T20:00:00Z,26.5255,-82.0032,2.714,6.93,1111122 
SCCF RECON,ioos:station:SCCF:13:1,2016-05-07T21:00:00Z,26.5255,-82.0032,2.58,6.94,1111122 
SCCF RECON,ioos:station:SCCF:13:1,2016-05-07T22:00:00Z,26.5255,-82.0032,2.461,7.0,1111122 
SCCF RECON,ioos:station:SCCF:13:1,2016-05-07T23:00:00Z,26.5255,-82.0032,2.368,7.04,1111122 
SCCF RECON,ioos:station:SCCF:13:1,2016-05-08T00:00:00Z,26.5255,-82.0032,2.27,7.11,1111122 
SCCF RECON,ioos:station:SCCF:13:1,2016-05-08T01:00:00Z,26.5255,-82.0032,2.19,7.16,1111122 
SCCF RECON,ioos:station:SCCF:13:1,2016-05-08T02:00:00Z,26.5255,-82.0032,2.152,7.26,1111122 
SCCF RECON,ioos:station:SCCF:13:1,2016-05-08T03:00:00Z,26.5255,-82.0032,2.199,7.18,1111122 
SCCF RECON,ioos:station:SCCF:13:1,2016-05-08T04:00:00Z,26.5255,-82.0032,2.35,7.19,1111122 
SCCF RECON,ioos:station:SCCF:13:1,2016-05-08T05:00:00Z,26.5255,-82.0032,2.47,6.95,1111122 
SCCF RECON,ioos:station:SCCF:13:1,2016-05-08T06:00:00Z,26.5255,-82.0032,2.56,6.7,1111122 
SCCF RECON,ioos:station:SCCF:13:1,2016-05-08T07:00:00Z,26.5255,-82.0032,2.63,6.62,1111122 
SCCF RECON,ioos:station:SCCF:13:1,2016-05-08T08:00:00Z,26.5255,-82.0032,2.66,6.51,1111122 
SCCF RECON,ioos:station:SCCF:13:1,2016-05-08T09:00:00Z,26.5255,-82.0032,2.62,6.51,1111122 
SCCF RECON,ioos:station:SCCF:13:1,2016-05-08T10:00:00Z,26.5255,-82.0032,2.53,6.44,1111122 
SCCF RECON,ioos:station:SCCF:13:1,2016-05-08T11:00:00Z,26.5255,-82.0032,2.46,6.31,1111122 
SCCF RECON,ioos:station:SCCF:13:1,2016-05-08T12:00:00Z,26.5255,-82.0032,2.42,6.25,1111122 
SCCF RECON,ioos:station:SCCF:13:1,2016-05-08T13:00:00Z,26.5255,-82.0032,2.391,6.53,1111122 
SCCF RECON,ioos:station:SCCF:13:1,2016-05-08T14:00:00Z,26.5255,-82.0032,2.45,6.79,1111122 
SCCF RECON,ioos:station:SCCF:13:1,2016-05-08T15:00:00Z,26.5255,-82.0032,2.585,6.33,1111122 
SCCF RECON,ioos:station:SCCF:13:1,2016-05-08T16:00:00Z,26.5255,-82.0032,2.702,6.53,1111122 
SCCF RECON,ioos:station:SCCF:13:1,2016-05-08T17:00:00Z,26.5255,-82.0032,2.768,6.61,1111122 
SCCF RECON,ioos:station:SCCF:13:1,2016-05-08T18:00:00Z,26.5255,-82.0032,2.815,6.63,1111122 
SCCF RECON,ioos:station:SCCF:13:1,2016-05-08T19:00:00Z,26.5255,-82.0032,2.837,6.7,1111122 
SCCF RECON,ioos:station:SCCF:13:1,2016-05-08T20:00:00Z,26.5255,-82.0032,2.8,6.84,1111122 
SCCF RECON,ioos:station:SCCF:13:1,2016-05-08T21:00:00Z,26.5255,-82.0032,2.71,6.94,1111122 
SCCF RECON,ioos:station:SCCF:13:1,2016-05-08T22:00:00Z,26.5255,-82.0032,2.578,7.07,1111122 
SCCF RECON,ioos:station:SCCF:13:1,2016-05-08T23:00:00Z,26.5255,-82.0032,2.452,6.8,1111122 
SCCF RECON,ioos:station:SCCF:13:1,2016-05-09T00:00:00Z,26.5255,-82.0032,2.361,6.88,1111122 
SCCF RECON,ioos:station:SCCF:13:1,2016-05-09T01:00:00Z,26.5255,-82.0032,2.276,6.94,1111122 
SCCF RECON,ioos:station:SCCF:13:1,2016-05-09T02:00:00Z,26.5255,-82.0032,2.2,7.02,1111122 
SCCF RECON,ioos:station:SCCF:13:1,2016-05-09T03:00:00Z,26.5255,-82.0032,2.17,6.96,1111122 
SCCF RECON,ioos:station:SCCF:13:1,2016-05-09T04:00:00Z,26.5255,-82.0032,2.29,6.92,1111122 
SCCF RECON,ioos:station:SCCF:13:1,2016-05-09T05:00:00Z,26.5255,-82.0032,2.45,6.94,1111122 
SCCF RECON,ioos:station:SCCF:13:1,2016-05-09T06:00:00Z,26.5255,-82.0032,2.566,6.56,1111122 
SCCF RECON,ioos:station:SCCF:13:1,2016-05-09T07:00:00Z,26.5255,-82.0032,2.62,6.5,1111122 
SCCF RECON,ioos:station:SCCF:13:1,2016-05-09T08:00:00Z,26.5255,-82.0032,2.675,6.36,1111122 
SCCF RECON,ioos:station:SCCF:13:1,2016-05-09T09:00:00Z,26.5255,-82.0032,2.68,6.52,1111122 
SCCF RECON,ioos:station:SCCF:13:1,2016-05-09T10:00:00Z,26.5255,-82.0032,2.63,6.48,1111122 
SCCF RECON,ioos:station:SCCF:13:1,2016-05-09T11:00:00Z,26.5255,-82.0032,2.59,6.42,1111122 
SCCF RECON,ioos:station:SCCF:13:1,2016-05-09T12:00:00Z,26.5255,-82.0032,2.56,6.25,1111122 
SCCF RECON,ioos:station:SCCF:13:1,2016-05-09T13:00:00Z,26.5255,-82.0032,2.522,6.08,1111122 
SCCF RECON,ioos:station:SCCF:13:1,2016-05-09T14:00:00Z,26.5255,-82.0032,2.548,6.01,1111122 
SCCF RECON,ioos:station:SCCF:13:1,2016-05-09T15:00:00Z,26.5255,-82.0032,2.63,5.8,1111122 
SCCF RECON,ioos:station:SCCF:13:1,2016-05-09T16:00:00Z,26.5255,-82.0032,2.73,6.66,1111122 
SCCF RECON,ioos:station:SCCF:13:1,2016-05-09T17:00:00Z,26.5255,-82.0032,2.818,6.83,1111122 
SCCF RECON,ioos:station:SCCF:13:1,2016-05-09T18:00:00Z,26.5255,-82.0032,2.86,6.64,1111122 
SCCF RECON,ioos:station:SCCF:13:1,2016-05-09T19:00:00Z,26.5255,-82.0032,2.89,6.78,1111122 
SCCF RECON,ioos:station:SCCF:13:1,2016-05-09T20:00:00Z,26.5255,-82.0032,2.892,6.97,1111122 
SCCF RECON,ioos:station:SCCF:13:1,2016-05-09T21:00:00Z,26.5255,-82.0032,2.82,7.04,1111122 
SCCF RECON,ioos:station:SCCF:13:1,2016-05-09T22:00:00Z,26.5255,-82.0032,2.711,6.84,1111122 
SCCF RECON,ioos:station:SCCF:13:1,2016-05-09T23:00:00Z,26.5255,-82.0032,2.588,6.81,1111122 
SCCF RECON,ioos:station:SCCF:13:1,2016-05-10T00:00:00Z,26.5255,-82.0032,2.499,6.91,1111122 
SCCF RECON,ioos:station:SCCF:13:1,2016-05-10T01:00:00Z,26.5255,-82.0032,2.41,6.93,1111122 
SCCF RECON,ioos:station:SCCF:13:1,2016-05-10T02:00:00Z,26.5255,-82.0032,2.318,6.99,1111122 
SCCF RECON,ioos:station:SCCF:13:1,2016-05-10T03:00:00Z,26.5255,-82.0032,2.24,6.86,1111122 
SCCF RECON,ioos:station:SCCF:13:1,2016-05-10T04:00:00Z,26.5255,-82.0032,2.22,6.73,1111122 
SCCF RECON,ioos:station:SCCF:13:1,2016-05-10T05:00:00Z,26.5255,-82.0032,2.35,6.76,1111122 
SCCF RECON,ioos:station:SCCF:13:1,2016-05-10T06:00:00Z,26.5255,-82.0032,2.45,6.74,1111122 
SCCF RECON,ioos:station:SCCF:13:1,2016-05-10T07:00:00Z,26.5255,-82.0032,2.48,6.28,1111122 
SCCF RECON,ioos:station:SCCF:13:1,2016-05-10T08:00:00Z,26.5255,-82.0032,2.542,6.39,1111122 
SCCF RECON,ioos:station:SCCF:13:1,2016-05-10T09:00:00Z,26.5255,-82.0032,2.59,6.31,1111122 
SCCF RECON,ioos:station:SCCF:13:1,2016-05-10T10:00:00Z,26.5255,-82.0032,2.61,6.19,1111122 
SCCF RECON,ioos:station:SCCF:13:1,2016-05-10T11:00:00Z,26.5255,-82.0032,2.62,6.2,1111122 
SCCF RECON,ioos:station:SCCF:13:1,2016-05-10T12:00:00Z,26.5255,-82.0032,2.613,6.21,1111122 
SCCF RECON,ioos:station:SCCF:13:1,2016-05-10T13:00:00Z,26.5255,-82.0032,2.602,6.1,1111122 
SCCF RECON,ioos:station:SCCF:13:1,2016-05-10T14:00:00Z,26.5255,-82.0032,2.62,6.11,1111122 
SCCF RECON,ioos:station:SCCF:13:1,2016-05-10T15:00:00Z,26.5255,-82.0032,2.681,6.06,1111122 
SCCF RECON,ioos:station:SCCF:13:1,2016-05-10T16:00:00Z,26.5255,-82.0032,2.75,6.76,1111122 
SCCF RECON,ioos:station:SCCF:13:1,2016-05-10T17:00:00Z,26.5255,-82.0032,2.79,6.85,1111122 
SCCF RECON,ioos:station:SCCF:13:1,2016-05-10T18:00:00Z,26.5255,-82.0032,2.832,6.84,1111122 
SCCF RECON,ioos:station:SCCF:13:1,2016-05-10T19:00:00Z,26.5255,-82.0032,2.88,6.78,1111122 
SCCF RECON,ioos:station:SCCF:13:1,2016-05-10T20:00:00Z,26.5255,-82.0032,2.91,6.9,1111122 
SCCF RECON,ioos:station:SCCF:13:1,2016-05-10T21:00:00Z,26.5255,-82.0032,2.91,7.04,1111122 
SCCF RECON,ioos:station:SCCF:13:1,2016-05-10T22:00:00Z,26.5255,-82.0032,2.876,7.09,1111122 
SCCF RECON,ioos:station:SCCF:13:1,2016-05-10T23:00:00Z,26.5255,-82.0032,2.77,6.85,1111122 
SCCF RECON,ioos:station:SCCF:13:1,2016-05-11T00:00:00Z,26.5255,-82.0032,2.639,6.69,1111122 
SCCF RECON,ioos:station:SCCF:13:1,2016-05-11T01:00:00Z,26.5255,-82.0032,2.54,6.83,1111122 
SCCF RECON,ioos:station:SCCF:13:1,2016-05-11T02:00:00Z,26.5255,-82.0032,2.443,6.96,1111122 
SCCF RECON,ioos:station:SCCF:13:1,2016-05-11T03:00:00Z,26.5255,-82.0032,2.347,6.87,1111122 
SCCF RECON,ioos:station:SCCF:13:1,2016-05-11T04:00:00Z,26.5255,-82.0032,2.28,6.69,1111122 
SCCF RECON,ioos:station:SCCF:13:1,2016-05-11T05:00:00Z,26.5255,-82.0032,2.272,6.68,1111122 
SCCF RECON,ioos:station:SCCF:13:1,2016-05-11T06:00:00Z,26.5255,-82.0032,2.371,6.71,1111122 
SCCF RECON,ioos:station:SCCF:13:1,2016-05-11T07:00:00Z,26.5255,-82.0032,2.46,6.68,1111122 
SCCF RECON,ioos:station:SCCF:13:1,2016-05-11T08:00:00Z,26.5255,-82.0032,2.513,6.49,1111122 
SCCF RECON,ioos:station:SCCF:13:1,2016-05-11T09:00:00Z,26.5255,-82.0032,2.55,6.17,1111122 
SCCF RECON,ioos:station:SCCF:13:1,2016-05-11T10:00:00Z,26.5255,-82.0032,2.58,6.19,1111122 
SCCF RECON,ioos:station:SCCF:13:1,2016-05-11T11:00:00Z,26.5255,-82.0032,2.59,6.07,1111122 
SCCF RECON,ioos:station:SCCF:13:1,2016-05-11T12:00:00Z,26.5255,-82.0032,2.56,5.9,1111122 
SCCF RECON,ioos:station:SCCF:13:1,2016-05-11T13:00:00Z,26.5255,-82.0032,2.55,5.89,1111122 
SCCF RECON,ioos:station:SCCF:13:1,2016-05-11T14:00:00Z,26.5255,-82.0032,2.56,5.99,1111122 
SCCF RECON,ioos:station:SCCF:13:1,2016-05-11T15:00:00Z,26.5255,-82.0032,2.55,6.05,1111122 
SCCF RECON,ioos:station:SCCF:13:1,2016-05-11T16:00:00Z,26.5255,-82.0032,2.59,5.61,1111122 
SCCF RECON,ioos:station:SCCF:13:1,2016-05-11T17:00:00Z,26.5255,-82.0032,2.62,5.83,1111122 
SCCF RECON,ioos:station:SCCF:13:1,2016-05-11T18:00:00Z,26.5255,-82.0032,2.652,6.05,1111122 
SCCF RECON,ioos:station:SCCF:13:1,2016-05-11T19:00:00Z,26.5255,-82.0032,2.712,6.91,1111122 
SCCF RECON,ioos:station:SCCF:13:1,2016-05-11T20:00:00Z,26.5255,-82.0032,2.766,7.01,1111122 
SCCF RECON,ioos:station:SCCF:13:1,2016-05-11T21:00:00Z,26.5255,-82.0032,2.815,6.84,1111122 
SCCF RECON,ioos:station:SCCF:13:1,2016-05-11T22:00:00Z,26.5255,-82.0032,2.82,6.73,1111122 
SCCF RECON,ioos:station:SCCF:13:1,2016-05-11T23:00:00Z,26.5255,-82.0032,2.76,6.85,1111122 
SCCF RECON,ioos:station:SCCF:13:1,2016-05-12T00:00:00Z,26.5255,-82.0032,2.666,6.7,1111122 
SCCF RECON,ioos:station:SCCF:13:1,2016-05-12T01:00:00Z,26.5255,-82.0032,2.56,6.43,1111122 
SCCF RECON,ioos:station:SCCF:13:1,2016-05-12T02:00:00Z,26.5255,-82.0032,2.487,6.71,1111122 
SCCF RECON,ioos:station:SCCF:13:1,2016-05-12T03:00:00Z,26.5255,-82.0032,2.411,6.82,1111122 
SCCF RECON,ioos:station:SCCF:13:1,2016-05-12T04:00:00Z,26.5255,-82.0032,2.329,6.9,1111122 
SCCF RECON,ioos:station:SCCF:13:1,2016-05-12T05:00:00Z,26.5255,-82.0032,2.27,6.73,1111122 
SCCF RECON,ioos:station:SCCF:13:1,2016-05-12T06:00:00Z,26.5255,-82.0032,2.284,6.6,1111122 
SCCF RECON,ioos:station:SCCF:13:1,2016-05-12T07:00:00Z,26.5255,-82.0032,2.355,6.55,1111122 
SCCF RECON,ioos:station:SCCF:13:1,2016-05-12T08:00:00Z,26.5255,-82.0032,2.44,6.48,1111122 
SCCF RECON,ioos:station:SCCF:13:1,2016-05-12T09:00:00Z,26.5255,-82.0032,2.509,6.1,1111122 
SCCF RECON,ioos:station:SCCF:13:1,2016-05-12T10:00:00Z,26.5255,-82.0032,2.54,5.99,1111122 
SCCF RECON,ioos:station:SCCF:13:1,2016-05-12T11:00:00Z,26.5255,-82.0032,2.589,6.02,1111122 
SCCF RECON,ioos:station:SCCF:13:1,2016-05-12T12:00:00Z,26.5255,-82.0032,2.63,5.95,1111122 
SCCF RECON,ioos:station:SCCF:13:1,2016-05-12T13:00:00Z,26.5255,-82.0032,2.633,5.96,1111122 
SCCF RECON,ioos:station:SCCF:13:1,2016-05-12T14:00:00Z,26.5255,-82.0032,2.623,5.99,1111122 
SCCF RECON,ioos:station:SCCF:13:1,2016-05-12T15:00:00Z,26.5255,-82.0032,2.606,5.84,1111122 
SCCF RECON,ioos:station:SCCF:13:1,2016-05-12T16:00:00Z,26.5255,-82.0032,2.57,5.82,1111122 
SCCF RECON,ioos:station:SCCF:13:1,2016-05-12T17:00:00Z,26.5255,-82.0032,2.553,6.21,1111122 
SCCF RECON,ioos:station:SCCF:13:1,2016-05-12T18:00:00Z,26.5255,-82.0032,2.55,6.22,1111122 
SCCF RECON,ioos:station:SCCF:13:1,2016-05-12T19:00:00Z,26.5255,-82.0032,2.6,5.6,1111122 
SCCF RECON,ioos:station:SCCF:13:1,2016-05-12T20:00:00Z,26.5255,-82.0032,2.66,6.34,1111122 
SCCF RECON,ioos:station:SCCF:13:1,2016-05-12T21:00:00Z,26.5255,-82.0032,2.691,6.74,1111122 
SCCF RECON,ioos:station:SCCF:13:1,2016-05-12T22:00:00Z,26.5255,-82.0032,2.71,6.63,1111122 
SCCF RECON,ioos:station:SCCF:13:1,2016-05-12T23:00:00Z,26.5255,-82.0032,2.7,6.49,1111122 
SCCF RECON,ioos:station:SCCF:13:1,2016-05-13T00:00:00Z,26.5255,-82.0032,2.67,6.06,1111122 
SCCF RECON,ioos:station:SCCF:13:1,2016-05-13T01:00:00Z,26.5255,-82.0032,2.6,5.88,1111122 
SCCF RECON,ioos:station:SCCF:13:1,2016-05-13T02:00:00Z,26.5255,-82.0032,2.499,6.33,1111122 
SCCF RECON,ioos:station:SCCF:13:1,2016-05-13T03:00:00Z,26.5255,-82.0032,2.41,6.7,1111122 
SCCF RECON,ioos:station:SCCF:13:1,2016-05-13T04:00:00Z,26.5255,-82.0032,2.344,6.73,1111122 
SCCF RECON,ioos:station:SCCF:13:1,2016-05-13T05:00:00Z,26.5255,-82.0032,2.27,6.76,1111122 